Location: Davidschlag
(48.4333°N, 14.2833°E)
Time: 09:53:45
(UTC+00:00)

STARLINK-77 - Pass Details

Date: 27 February 2020
Orbit: 529 x 530 km, 53.0° (Epoch: 04 April)

Event Time Altitude Azimuth Distance (km) Brightness Sun altitude
Rises 17:05:02 0° 266° (W) 2,664 10.1 -4.5°
Reaches altitude 10° 17:07:18 10° 272° (W) 1,776 8.0 -4.9°
Maximum altitude 17:11:13 49° 348° (NNW) 693 4.2 -5.5°
Drops below altitude 10° 17:15:09 10° 64° (ENE) 1,782 5.6 -6.2°
Enters shadow 17:15:49 - 67° (ENE) 2,040 5.9 -6.3°
